Regional Weather Roundup
Issued by NWS

Home | Current Version | Previous Version | Text Only | Print | Product List | Glossary Off
Versions: 1 2 3 4 5 6 7 8 9 10 11 12 13 14 15 16 17 18 19 20 21 22 23 24 25 26 27 28 29 30 31 32 33 34 35 36 37 38 39 40 41 42 43 44 45 46 47 48 49 50

000
ASUS43 KFSD 072102
RWRSD

WEATHER ROUNDUP FOR SOUTH DAKOTA
NATIONAL WEATHER SERVICE SIOUX FALLS SD
300 PM CST WED DEC 07 2016

NOTE: "FAIR" INDICATES FEW OR NO CLOUDS BELOW 12,000 FEET WITH NO
SIGNIFICANT WEATHER AND/OR OBSTRUCTIONS TO VISIBILITY.


SDZ001>005-009-010-012>017-072200-
NORTHWEST AND NORTH CENTRAL SOUTH DAKOTA

CITY           SKY/WX    TMP DP  RH WIND       PRES   REMARKS
BUFFALO          N/A      8  -3  61 NW28G37   30.27R WCI -14
FAITH            N/A      7   0  73 NW28      30.33R WCI -16
MOBRIDGE       MOSUNNY   10  -1  61 NW31G45   30.27R WCI -13
$$

SDZ012>016-024>037-041>051-057-063-072>074-072200-
SOUTHWEST AND SOUTH CENTRAL SOUTH DAKOTA

CITY           SKY/WX    TMP DP  RH WIND       PRES   REMARKS
RAPID CTY ARPT SUNNY     15  -4  42 NW18      30.33R WCI  -2
PIERRE         PTSUNNY   13   4  67 NW30G39   30.33S WCI  -8
CUSTER         SUNNY     11 -10  38 N12G20    30.11R WCI  -3
ELLSWORTH AFB  SUNNY     14  -4  44 N20       30.32R WCI  -4
PINE RIDGE     SUNNY     11   1  64 VRB6      30.34R WCI   1
SPEARFISH      FAIR       5  -6  61 NW20G29   30.31R WCI -15
WINNER         FAIR      17   3  54 NW21G30   30.34R WCI   0
$$

SDZ004>011-016>023-039-040-072200-
NORTHEAST SOUTH DAKOTA

CITY           SKY/WX    TMP DP  RH WIND       PRES   REMARKS
ABERDEEN       CLOUDY    11   0  61 NW26G35   30.26R WCI -10
WATERTOWN      CLOUDY    12   5  73 W28G36    30.15R HAZE    WCI  -9
SISSETON         N/A     14   6  70 NW23G36   30.13R WCI  -5
$$

SDZ017-020-022-023-036>040-048>070-072200-
SOUTHEAST SOUTH DAKOTA

CITY           SKY/WX    TMP DP  RH WIND       PRES   REMARKS
SIOUX FALLS    NOT AVBL
HURON          NOT AVBL
$$

ABBREVIATIONS USED IN REMARKS
   TC - TEMPERATURE IN CELSIUS
  WCI - WIND CHILL INDEX
   HX - HEAT INDEX
  VSB - VISIBILITY




USA.gov is the U.S. government's official web portal to all federal, state and local government web resources and services.